Location: Riverside Cemetery
(38.3047°N, 99.7773°W)
Time: 07:05:50
(UTC+00:00)

Cosmos 2228 Rocket - Pass Details

Date: 19 September 2020
Orbit: 619 x 651 km, 82.5° (Epoch: 22 October)

Event Time Altitude Azimuth Distance (km) Brightness Sun altitude
Exits shadow 10:01:19 48° 97° (E) 817 3.9 -27.9°
Maximum altitude 10:01:25 48° 93° (E) 816 3.9 -27.9°
Drops below altitude 10° 10:05:39 10° 19° (NNE) 1,993 6.2 -27.2°
Sets 10:07:56 0° 14° (NNE) 2,905 7.0 -26.8°
